Regional Weather Roundup
Issued by NWS

Home | Current Version | Previous Version | Graphics & Text | Print | Product List | Glossary On
Versions: 1 2 3 4 5 6 7 8 9 10 11 12 13 14 15 16 17 18 19 20 21 22 23 24 25 26 27 28 29 30 31 32 33 34 35 36 37 38 39 40 41 42 43 44 45 46 47 48 49 50
000
ASUS43 KDMX 270707
RWRIA

WEATHER ROUNDUP FOR IOWA
NATIONAL WEATHER SERVICE DES MOINES IA
200 AM CDT WED AUG 27 2014

NOTE: "FAIR" INDICATES FEW OR NO CLOUDS BELOW 12,000 FEET WITH NO
SIGNIFICANT WEATHER AND/OR OBSTRUCTIONS TO VISIBILITY.

* - THESE STATIONS ARE NOT NWS STATIONS...THUS NOT UNDER NWS
QUALITY CONTROL.  THEY ALSO DO NOT REPORT WEATHER SUCH
AS PRECIPITATION OR FOG.

IAZ001>003-012>014-020>022-031>034-043>046-270800-
   NORTHWEST IOWA

CITY           SKY/WX    TMP DP  RH WIND       PRES   REMARKS
CARROLL *      MOCLDY    64  63  94 CALM      30.15S
CHEROKEE *     PTCLDY    59  59 100 NE3       30.16S
DENISON *      MOCLDY    63  63 100 E3        30.13F
LE MARS *      CLEAR     61  59  94 N5        30.16S
ORANGE CITY *  CLEAR     63  57  82 E3        30.17R
SHELDON *      CLEAR     57  57 100 NE5       30.16S
SIOUX CITY     MOCLDY    65  61  87 NE3       30.15S
SPENCER        CLEAR     57  54  89 E3        30.17F
STORM LAKE *   PTCLDY    61  61 100 NE7       30.16F
$$

IAZ055>058-069>071-079>083-090>094-270800-
   SOUTHWEST IOWA

CITY           SKY/WX    TMP DP  RH WIND       PRES   REMARKS
ATLANTIC *     CLEAR     66  64  94 NE5       30.14S
AUDUBON *      PTCLDY    68  64  88 CALM      30.16S
CLARINDA *     MOCLDY    70  68  94 CALM      30.13F
COUNCIL BLFS * MOCLDY    68  68 100 E8        30.12F
CRESTON *      CLEAR     66  66 100 E8        30.15S
HARLAN  *      PTCLDY    64  64 100 CALM      30.17F
LAMONI         PTCLDY    69  66  90 NE7       30.14S
RED OAK *      PTCLDY    68  66  94 NE7       30.13S
SHENANDOAH *     N/A     68  68 100 NE6       30.11F
$$

IAZ047>049-059>061-072>074-084-270800-
   CENTRAL IOWA

CITY           SKY/WX    TMP DP  RH WIND       PRES   REMARKS
AMES           MOCLDY    66  65  96 CALM      30.15S
ANKENY *       CLOUDY    68  64  88 CALM      30.13F
CHARITON *     CLEAR     66  64  94 E5        30.15R
DES MOINES     MOCLDY    72  63  73 E5        30.13S
GRINNELL*      MOCLDY    66  63  88 CALM      30.15F
KNOXVILLE *    MOCLDY    68  64  88 CALM      30.13S
MARSHALLTOWN   PTCLDY    65  63  93 NE3       30.14F
PELLA *        MOCLDY    68  64  88 CALM      30.15S
PERRY *        MOCLDY    68  66  94 CALM      30.15F
$$

IAZ004>006-015-016-023>025-035-036-270800-
   NORTH CENTRAL IOWA

CITY           SKY/WX    TMP DP  RH WIND       PRES   REMARKS
ALGONA *       CLEAR     59  57  94 NE5       30.18S
CLARION *      CLEAR     61  61 100 NE3       30.17S
ESTHERVILLE    CLEAR     56  54  93 NE6       30.17F
FORT DODGE *   PTCLDY    63  61  94 NE3       30.17S
MASON CITY     CLEAR     58  57  97 N5        30.19S
FOREST CITY *  CLEAR     59  59 100 CALM      30.18S
IOWA FALLS *     N/A     64  59  82 CALM      30.18S
$$

IAZ007>011-017>019-026>030-037>042-050>054-066-270800-
   NORTHEAST IOWA

CITY           SKY/WX    TMP DP  RH WIND       PRES   REMARKS
CEDAR RAPIDS   CLOUDY    69  64  84 NE3       30.14F
CHARLES CITY * PTCLDY    61  59  94 NE6       30.18R
CLINTON *      CLOUDY    66  64  94 N6        30.16S
DECORAH *      CLEAR     61  59  94 CALM      30.17S
DUBUQUE        CLOUDY    66  61  84 NE7       30.15F
MONTICELLO *   CLEAR     66  66 100 CALM      30.15R
OELWEIN *      CLOUDY    64  61  88 E3        30.17S
WATERLOO       MOCLDY    66  60  81 E3        30.14F
$$

IAZ064-065-067-068-078-270800-
   EAST CENTRAL IOWA

CITY           SKY/WX    TMP DP  RH WIND       PRES   REMARKS
DAVENPORT      CLOUDY    67  64  90 N3        30.14S
IOWA CITY      CLOUDY    72  65  78 N5        30.15S
MT. PLEASANT * MOCLDY    70  66  88 N5        30.13F
MUSCATINE *    CLEAR     70  64  83 N7        30.13S
QUAD CITIES    MOCLDY    70  65  84 CALM      30.12F
$$

IAZ062-063-075>077-085>089-095>099-270800-
   SOUTHEAST IOWA

CITY           SKY/WX    TMP DP  RH WIND       PRES   REMARKS
BURLINGTON     MOCLDY    71  68  90 N5        30.11F
FAIRFIELD *    PTCLDY    68  64  88 N5        30.14S
FORT MADISON * PTCLDY    70  70 100 CALM      30.13S
KEOKUK *       CLEAR     70  68  94 N5        30.11S
OSKALOOSA *      N/A     64  64 100 NE3       30.14F
CENTERVILLE *  CLEAR     68  68 100 E5        30.15S
OTTUMWA        PTCLDY    68  64  87 NE5       30.14S
WASHINGTON *   CLEAR     68  66  94 N6        30.13F
$$

ABBREVIATIONS USED IN REMARKS
   TC - TEMPERATURES IN CELSIUS
  WCI - WIND CHILL INDEX
   HX - HEAT INDEX
  VSB - VISIBILITY
$$



USA.gov is the U.S. government's official web portal to all federal, state and local government web resources and services.